ZL1TQN Weather Reports


Display with metric or nautical units.
time (UTC)temp
F
wind
direction
speed
MPH
gust
MPH
rain 1hr
in
rain 24hr
in
rain mn
in
humidity
%
barometer
mb
20260508130005 64 353 5.0 16.0 0.03 0.22 0.03 93 1007.7
20260508125507 64 6 7.0 13.0 0.13 0.22 0.03 93 1007.7
20260508125005 64 8 5.0 13.0 0.12 0.21 0.02 93 1007.8
20260508124505 64 356 6.0 15.0 0.12 0.21 0.02 93 1008.0
20260508124005 64 16 3.0 15.0 0.10 0.20 0.01 93 1008.1
20260508123505 64 1 7.0 14.0 0.10 0.20 0.01 92 1008.1
20260508123005 64 5 5.0 12.0 0.09 0.19 0.00 92 1008.3
20260508122504 64 0 4.0 12.0 0.09 0.19 0.00 92 1008.4
20260508122005 64 12 5.0 12.0 0.09 0.19 0.00 92 1008.6
20260508121505 64 348 2.0 12.0 0.09 0.19 0.00 91 1008.7
20260508121005 64 1 4.0 12.0 0.00 0.19 0.09 91 1008.7
20260508120005 64 346 4.0 12.0 0.00 0.12 0.00 91 1008.8
20260508115504 64 356 5.0 12.0 0.00 0.12 0.09 90 1009.0
20260508115004 64 8 5.0 12.0 0.00 0.12 0.09 90 1009.2
20260508114505 64 334 4.0 12.0 0.00 0.12 0.09 90 1009.2
20260508114004 64 12 6.0 12.0 0.00 0.12 0.09 90 1009.2
20260508113505 64 346 4.0 15.0 0.00 0.12 0.09 90 1009.4
20260508113005 64 345 5.0 15.0 0.00 0.12 0.09 90 1009.6
20260508112505 64 6 3.0 16.0 0.00 0.12 0.09 90 1009.7
20260508111505 64 8 5.0 13.0 0.00 0.12 0.09 90 1009.7
20260508111005 64 8 7.0 16.0 0.00 0.12 0.09 90 1009.7
20260508110005 64 22 6.0 21.0 0.00 0.12 0.09 91 1009.8
20260508105005 64 355 7.0 15.0 0.00 0.12 0.09 91 1010.3
20260508104505 64 352 6.0 15.0 0.00 0.12 0.09 92 1010.3
20260508104005 64 1 6.0 14.0 0.00 0.12 0.09 92 1010.6
20260508103505 64 340 3.0 12.0 0.00 0.12 0.09 92 1010.6
20260508103006 64 3 5.0 12.0 0.00 0.12 0.09 92 1010.7
20260508102504 64 8 5.0 12.0 0.00 0.12 0.09 92 1010.7
20260508102005 64 352 4.0 12.0 0.00 0.12 0.09 92 1010.8
20260508101005 64 10 5.0 16.0 0.00 0.12 0.09 92 1010.8
20260508095505 64 6 7.0 17.0 0.01 0.12 0.09 92 1011.2
20260508095005 64 5 6.0 17.0 0.01 0.12 0.09 92 1011.2
20260508093505 64 351 5.0 15.0 0.02 0.12 0.09 91 1011.3
20260508092505 63 354 5.0 15.0 0.02 0.12 0.09 92 1011.4
20260508091505 63 355 5.0 14.0 0.02 0.12 0.09 92 1011.4
20260508091005 63 20 4.0 14.0 0.02 0.12 0.09 92 1011.5
20260508085504 63 343 6.0 12.0 0.01 0.11 0.09 92 1011.8
20260508085004 64 351 3.0 9.0 0.01 0.11 0.09 91 1011.8
20260508084505 64 341 4.0 15.0 0.01 0.11 0.09 91 1011.8
20260508084004 64 350 4.0 15.0 0.00 0.10 0.08 90 1011.8
20260508083505 64 358 6.0 16.0 0.00 0.10 0.08 90 1011.7
20260508083006 64 12 8.0 16.0 0.00 0.10 0.08 90 1011.7
20260508082006 64 10 5.0 12.0 0.00 0.10 0.08 90 1011.7
20260508081506 64 21 3.0 13.0 0.00 0.10 0.08 89 1011.8
20260508081006 64 20 5.0 15.0 0.00 0.10 0.08 89 1011.9
20260508080006 64 21 5.0 14.0 0.00 0.10 0.08 90 1011.9
20260508075506 64 25 7.0 14.0 0.00 0.10 0.08 90 1012.0
20260508075006 64 7 7.0 14.0 0.00 0.10 0.08 90 1012.0
20260508074506 64 16 3.0 14.0 0.00 0.10 0.08 90 1012.1
20260508074006 64 38 6.0 14.0 0.00 0.10 0.08 89 1012.2
20260508073506 64 8 5.0 14.0 0.00 0.10 0.08 89 1012.4
20260508073006 64 11 4.0 14.0 0.00 0.10 0.08 89 1012.4
20260508071505 64 14 4.0 15.0 0.00 0.10 0.08 89 1012.4
20260508071006 64 7 6.0 15.0 0.00 0.10 0.08 89 1012.6
20260508070006 64 356 5.0 13.0 0.00 0.10 0.08 89 1012.6
20260508065006 64 12 5.0 13.0 0.00 0.10 0.08 89 1012.6
20260508064006 64 2 6.0 13.0 0.00 0.10 0.08 89 1012.8
20260508063006 64 20 5.0 12.0 0.00 0.10 0.08 88 1013.0
20260508061506 64 7 6.0 13.0 0.00 0.10 0.08 88 1013.4
20260508061007 64 356 3.0 17.0 0.00 0.10 0.08 88 1013.5
20260508060006 64 0 5.0 17.0 0.00 0.10 0.08 88 1013.4
20260508055506 64 0 5.0 13.0 0.00 0.10 0.08 88 1013.4
20260508055006 64 20 6.0 13.0 0.00 0.10 0.08 89 1013.5
20260508054505 64 19 3.0 9.0 0.00 0.10 0.08 89 1013.6
20260508053006 64 22 4.0 10.0 0.00 0.10 0.08 89 1013.4
20260508052506 64 3 5.0 12.0 0.00 0.10 0.08 89 1013.6
20260508051506 64 9 3.0 12.0 0.00 0.10 0.08 89 1013.9
20260508051006 64 10 4.0 12.0 0.00 0.10 0.08 89 1013.9
20260508050005 64 12 3.0 12.0 0.00 0.10 0.08 90 1014.0
20260508045506 64 25 4.0 12.0 0.00 0.10 0.08 90 1014.0
20260508045005 64 20 4.0 10.0 0.00 0.10 0.08 90 1014.0
20260508044506 64 18 3.0 6.0 0.00 0.10 0.08 89 1014.1
20260508044006 64 28 3.0 10.0 0.00 0.10 0.08 89 1014.1
20260508043505 64 18 4.0 10.0 0.00 0.10 0.08 88 1014.2
20260508043006 64 23 3.0 10.0 0.00 0.10 0.08 87 1014.4
20260508042505 64 16 2.0 12.0 0.00 0.10 0.08 88 1014.3
20260508042006 64 16 3.0 12.0 0.00 0.10 0.08 87 1014.2
20260508041506 64 25 3.0 12.0 0.00 0.10 0.08 87 1014.1
20260508041006 64 38 3.0 10.0 0.00 0.10 0.08 86 1014.3
20260508040006 65 26 2.0 8.0 0.00 0.10 0.08 84 1014.5
20260508035006 65 29 3.0 12.0 0.00 0.10 0.08 86 1014.4
20260508034506 64 23 4.0 12.0 0.00 0.10 0.08 86 1014.6
20260508034006 64 3 6.0 12.0 0.00 0.10 0.08 86 1015.0
20260508033006 64 3 5.0 13.0 0.00 0.10 0.08 87 1015.0
20260508032506 64 1 4.0 12.0 0.00 0.10 0.08 87 1015.0
20260508032005 64 352 3.0 12.0 0.00 0.10 0.08 88 1015.0
20260508031506 64 352 6.0 16.0 0.00 0.10 0.08 88 1015.0
20260508031006 64 359 6.0 16.0 0.00 0.10 0.08 88 1015.0
20260508030006 64 10 3.0 12.0 0.00 0.10 0.08 88 1014.9
20260508025506 65 28 2.0 9.0 0.00 0.10 0.08 88 1014.9
20260508025005 65 13 3.0 9.0 0.00 0.10 0.08 88 1015.0
20260508024505 65 21 5.0 10.0 0.00 0.10 0.08 88 1015.1
20260508024006 65 12 5.0 10.0 0.00 0.10 0.08 88 1015.2
20260508023505 65 13 3.0 12.0 0.00 0.10 0.08 88 1015.3
20260508023006 65 357 3.0 12.0 0.00 0.10 0.08 88 1015.4
20260508022506 65 15 3.0 10.0 0.00 0.10 0.08 88 1015.4
20260508022005 65 353 5.0 12.0 0.00 0.10 0.08 88 1015.5
20260508021505 65 19 4.0 12.0 0.00 0.10 0.08 88 1015.7
20260508021006 65 23 4.0 12.0 0.00 0.10 0.08 88 1015.9
20260508020005 65 2 4.0 12.0 0.00 0.10 0.08 88 1016.1
20260508015505 65 14 3.0 10.0 0.00 0.10 0.08 87 1016.2
20260508015006 66 359 3.0 13.0 0.00 0.10 0.08 88 1016.3
20260508014505 66 13 6.0 13.0 0.00 0.10 0.08 87 1016.1
20260508014005 66 24 4.0 12.0 0.00 0.10 0.08 89 1016.0
20260508013006 65 19 3.0 10.0 0.00 0.10 0.08 90 1016.2
20260508012506 65 35 2.0 7.0 0.00 0.10 0.08 90 1016.1
20260508012005 65 18 3.0 7.0 0.00 0.10 0.08 89 1016.2
20260508011505 65 30 1.0 10.0 0.00 0.10 0.08 89 1016.3
20260508011006 65 15 4.0 12.0 0.00 0.10 0.08 88 1016.5
20260508010005 65 20 3.0 9.0 0.00 0.10 0.08 87 1016.6
20260508005505 65 11 3.0 10.0 0.00 0.10 0.08 87 1016.9
20260508005006 65 15 2.0 10.0 0.00 0.10 0.08 88 1016.8
20260508004505 64 15 2.0 12.0 0.00 0.10 0.08 87 1016.8
20260508004005 64 17 3.0 12.0 0.00 0.10 0.08 88 1017.1
20260508002506 64 11 4.0 10.0 0.00 0.10 0.08 87 1017.2
20260508002005 64 2 2.0 10.0 0.00 0.10 0.08 87 1017.5
20260508001006 64 11 3.0 10.0 0.00 0.10 0.08 88 1017.6
20260508000006 64 18 3.0 10.0 0.00 0.10 0.08 87 1018.1
20260507235006 64 18 5.0 10.0 0.00 0.10 0.08 87 1018.1
20260507234505 64 22 3.0 14.0 0.00 0.10 0.08 89 1018.1
20260507234006 64 36 5.0 14.0 0.00 0.10 0.08 89 1018.2
20260507233006 64 15 2.0 7.0 0.00 0.10 0.08 90 1018.4
20260507232505 64 21 3.0 7.0 0.02 0.10 0.08 90 1018.3
20260507232006 63 15 3.0 7.0 0.02 0.10 0.08 90 1018.6
20260507231506 63 9 3.0 6.0 0.02 0.10 0.08 91 1018.7
20260507231005 63 13 2.0 10.0 0.02 0.10 0.08 91 1018.7
20260507230006 62 37 2.0 8.0 0.02 0.10 0.08 92 1018.6
20260507225505 62 19 3.0 10.0 0.02 0.10 0.08 91 1018.7
20260507225005 62 29 5.0 12.0 0.02 0.10 0.08 92 1018.8
20260507224506 62 10 5.0 12.0 0.02 0.10 0.08 93 1018.9
20260507224006 62 6 4.0 12.0 0.02 0.10 0.08 92 1018.9
20260507223505 63 355 2.0 12.0 0.02 0.10 0.08 91 1018.9
20260507223006 63 330 4.0 13.0 0.02 0.10 0.08 89 1018.9
20260507222505 64 5 6.0 13.0 0.00 0.08 0.06 87 1018.7
20260507221505 65 36 3.0 12.0 0.00 0.08 0.06 86 1018.7
20260507220005 65 33 3.0 12.0 0.00 0.08 0.06 86 1018.9
20260507215505 65 21 4.0 12.0 0.00 0.08 0.06 86 1019.0
20260507215006 65 20 3.0 10.0 0.00 0.08 0.06 87 1019.1
20260507214506 65 7 2.0 10.0 0.00 0.08 0.06 88 1019.1
20260507214006 65 30 4.0 10.0 0.00 0.08 0.06 88 1019.1
20260507213005 64 31 2.0 12.0 0.00 0.08 0.06 90 1019.1
20260507212505 64 31 3.0 12.0 0.00 0.08 0.06 89 1019.1
20260507212006 64 34 1.0 10.0 0.00 0.08 0.06 89 1019.1
20260507211506 65 9 3.0 10.0 0.00 0.08 0.06 87 1019.1
20260507211005 65 13 3.0 10.0 0.00 0.08 0.06 87 1018.9
20260507210006 65 58 1.0 10.0 0.00 0.08 0.06 88 1019.1
20260507205505 65 22 2.0 10.0 0.00 0.08 0.06 87 1019.2
20260507204505 64 10 2.0 9.0 0.00 0.08 0.06 90 1019.2
20260507204005 63 14 2.0 9.0 0.00 0.08 0.06 91 1019.4
20260507203005 61 47 1.0 3.0 0.00 0.08 0.06 91 1019.3
20260507202505 61 26 1.0 3.0 0.00 0.08 0.06 91 1019.3
20260507202005 61 33 1.0 5.0 0.00 0.08 0.06 90 1019.2
20260507201505 61 49 2.0 6.0 0.00 0.08 0.06 90 1019.2
20260507201005 61 35 1.0 6.0 0.00 0.09 0.06 90 1019.2
20260507200005 61 19 2.0 5.0 0.00 0.09 0.06 91 1019.2
20260507195505 61 2 1.0 5.0 0.00 0.09 0.06 92 1019.2
20260507195005 62 20 2.0 6.0 0.00 0.09 0.06 92 1019.3
20260507194505 62 32 3.0 6.0 0.00 0.09 0.06 94 1019.3
20260507194005 62 44 1.0 3.0 0.00 0.09 0.06 94 1019.3
20260507193505 62 29 0.0 5.0 0.00 0.09 0.06 94 1019.2
20260507193005 62 24 2.0 5.0 0.00 0.09 0.06 95 1019.4
20260507192006 61 19 1.0 3.0 0.00 0.09 0.06 94 1019.2
20260507191505 61 40 0.0 1.0 0.00 0.09 0.06 94 1019.2
20260507191006 61 40 0.0 1.0 0.00 0.09 0.06 94 1019.2
20260507190006 61 29 0.0 1.0 0.00 0.09 0.06 94 1019.4
20260507185505 61 38 0.0 2.0 0.00 0.09 0.06 94 1019.5
20260507185005 61 41 0.0 2.0 0.00 0.09 0.06 94 1019.5
20260507184505 62 10 0.0 2.0 0.00 0.09 0.06 94 1019.7
20260507184005 62 10 0.0 3.0 0.00 0.09 0.06 94 1019.7
20260507183505 62 12 1.0 3.0 0.00 0.09 0.06 94 1019.6
20260507182005 62 19 2.0 5.0 0.00 0.09 0.06 94 1019.7
20260507181505 62 13 2.0 5.0 0.00 0.09 0.06 94 1019.7
20260507181005 62 1 1.0 3.0 0.00 0.09 0.06 94 1019.7
20260507180005 62 29 1.0 5.0 0.00 0.09 0.06 94 1019.7
20260507175505 62 4 1.0 5.0 0.00 0.09 0.06 94 1019.7
20260507175005 62 351 2.0 5.0 0.00 0.09 0.06 94 1019.6
20260507174505 62 11 2.0 5.0 0.00 0.09 0.06 94 1019.7
20260507174005 62 357 2.0 5.0 0.00 0.09 0.06 94 1019.7
20260507173505 62 356 2.0 3.0 0.00 0.09 0.06 94 1019.7
20260507173005 62 19 2.0 3.0 0.01 0.09 0.06 94 1019.7
20260507172505 62 19 2.0 3.0 0.01 0.09 0.06 94 1019.7
20260507172005 62 2 2.0 3.0 0.01 0.09 0.06 94 1019.7
20260507171505 62 20 2.0 3.0 0.02 0.09 0.06 94 1019.7
20260507171005 62 14 1.0 3.0 0.04 0.09 0.06 95 1019.7
20260507170005 61 22 0.0 3.0 0.06 0.09 0.06 95 1019.7
20260507165505 61 37 1.0 3.0 0.06 0.10 0.06 95 1019.7
20260507165005 61 2 1.0 5.0 0.06 0.10 0.06 95 1019.7
20260507164505 61 20 2.0 5.0 0.06 0.10 0.06 95 1019.7
20260507164005 61 38 2.0 3.0 0.06 0.10 0.06 94 1019.7
20260507163005 61 9 1.0 3.0 0.05 0.09 0.05 94 1019.7
20260507162505 61 356 1.0 10.0 0.05 0.09 0.05 93 1019.8
20260507162005 61 348 1.0 10.0 0.05 0.09 0.05 93 1019.8
20260507161505 61 303 3.0 10.0 0.04 0.09 0.04 93 1019.9
20260507161006 61 332 1.0 3.0 0.02 0.06 0.02 93 1020.0
20260507160005 61 267 1.0 3.0 0.00 0.05 0.00 93 1020.0
20260507155505 61 316 1.0 3.0 0.00 0.05 0.00 93 1020.0
20260507155005 61 316 1.0 5.0 0.00 0.05 0.00 93 1020.1
20260507154505 61 342 3.0 6.0 0.00 0.05 0.00 93 1020.2
20260507154006 60 317 1.0 7.0 0.00 0.05 0.00 93 1020.2
20260507153005 60 29 1.0 2.0 0.00 0.05 0.00 93 1020.2
20260507152505 60 60 1.0 3.0 0.00 0.05 0.00 93 1020.2
20260507152005 60 358 0.0 3.0 0.00 0.05 0.00 93 1020.3
20260507151505 60 44 0.0 1.0 0.00 0.05 0.00 93 1020.4
20260507151006 60 277 0.0 1.0 0.00 0.05 0.00 93 1020.6
20260507150006 60 277 1.0 3.0 0.00 0.05 0.00 93 1020.7
20260507145506 60 274 1.0 5.0 0.00 0.05 0.00 93 1020.8
20260507145005 60 312 1.0 5.0 0.00 0.05 0.00 93 1020.8
20260507144506 60 274 2.0 3.0 0.00 0.05 0.00 94 1020.9
20260507143005 60 28 1.0 3.0 0.00 0.05 0.00 94 1021.1
20260507142505 60 21 1.0 2.0 0.00 0.05 0.00 95 1021.2
20260507142005 60 51 1.0 2.0 0.00 0.05 0.00 95 1021.2
20260507141007 60 50 0.0 2.0 0.00 0.05 0.00 95 1021.2
20260507140005 59 84 0.0 2.0 0.00 0.05 0.00 95 1021.2
20260507135505 59 103 0.0 1.0 0.00 0.05 0.00 95 1021.3
20260507135005 59 104 0.0 2.0 0.00 0.05 0.00 94 1021.4
20260507133504 58 133 1.0 2.0 0.00 0.05 0.00 94 1021.4
20260507133005 58 133 1.0 2.0 0.00 0.05 0.00 94 1021.4
20260507132505 59 133 1.0 2.0 0.00 0.05 0.00 94 1021.6
20260507132004 59 133 1.0 2.0 0.00 0.05 0.00 94 1021.6
20260507131504 59 133 1.0 2.0 0.00 0.05 0.00 94 1021.7
20260507131005 59 133 1.0 2.0 0.00 0.05 0.00 93 1021.7